Location: Madrid
(40.4000°N, 3.6830°W)
Time: 13:40:20
(UTC+01:00)

ISS - Pass Details

Date: 08 December 2019
Orbit: 411 x 421 km, 51.6° (Epoch: 11 December)

Event Time Altitude Azimuth Distance (km) Brightness Sun altitude
Rises 19:59:43 0° 303° (WNW) 2,360 0.8 -24.3°
Reaches altitude 10° 20:01:51 10° 298° (WNW) 1,496 -0.3 -24.7°
Enters shadow 20:03:57 33° 277° (W) 732 -2.0 -25.1°
